Starlink 11516

operational
NORAD ID: 62522 Int'l Des: 2025-004 Owner: SPXS Country: US Constellation: starlink
LEOCIRCULAR

关于 Starlink 11516

正在加载描述...

实时位置

正在加载3D地球...

即将过境

高度历史

Altitude vs Time

uPlot chart will show altitude changes over time

两行轨道根数

1 62522U 25004M 25306.48506860 .00230946 00000-0 17405-2 0 9994
2 62522 42.9985 117.3780 0005851 290.6652 69.3588 15.71006309 47206
Epoch: Nov 2, 2025 • Age: 33 hours

当前状态

高度 359.8 km
速度 7.69 km/s
星下点 -24.79°S, 33.76°W
发射日期 Jan 8, 2025
运行时间 0.8 years
类型 internet

技术详情

分类 Payload
质量 960.00 kg
干质量 910.00 kg
总质量 960.00 kg
长度 0.30 m
直径 4.10 m
跨度 29.00 m
形状 Box + pan
制造商 SPXS
平台类型 Starlink V2MD
阶段状态 In Orbit
所有者/国家 SPXS/US

大型星座

Loading constellations...